Location: Brienzwiler
(46.7508°N, 8.1014°E)
Time: 01:35:12
(UTC+00:00)

Cosmos 2221 - Pass Details

Date: 05 July 2020
Orbit: 592 x 617 km, 82.5° (Epoch: 11 August)

Event Time Altitude Azimuth Distance (km) Brightness Sun altitude
Rises 20:53:32 0° 358° (N) 2,898 7.0 -11.9°
Reaches altitude 10° 20:55:58 10° 9° (N) 1,985 5.8 -12.1°
Maximum altitude 20:59:56 33° 73° (ENE) 1,042 3.5 -12.5°
Enters shadow 21:02:30 18° 127° (SE) 1,500 3.9 -12.8°
